Time,TemperatureF,DewpointF,PressureIn,WindDirection,WindDirectionDegrees,WindSpeedMPH,WindSpeedGustMPH,Humidity,HourlyPrecipIn,Conditions,Clouds,dailyrainin,SoftwareType,DateUTC
2013-09-08 00:00:00,58.0,56.0,29.61,SSW,200,37.0,47.0,93,-99.99,,,-99.99,,2013-09-08 08:00:00,
2013-09-08 00:52:00,58.0,56.0,29.61,SSW,200,37.0,47.0,93,-99.99,,,-99.99,,2013-09-08 08:52:00,
2013-09-08 01:00:00,58.0,56.0,29.61,South,190,38.0,54.0,93,-99.99,,,-99.99,,2013-09-08 09:00:00,
2013-09-08 01:53:00,58.0,56.0,29.61,South,190,38.0,54.0,93,-99.99,,,-99.99,,2013-09-08 09:53:00,
2013-09-08 02:00:00,59.0,56.0,29.59,South,190,39.0,52.0,89,-99.99,,,-99.99,,2013-09-08 10:00:00,
2013-09-08 02:53:00,59.0,56.0,29.59,South,190,39.0,52.0,89,-99.99,,,-99.99,,2013-09-08 10:53:00,
2013-09-08 03:00:00,59.0,56.0,29.61,South,170,43.0,61.0,89,-99.99,,,-99.99,,2013-09-08 11:00:00,
2013-09-08 03:52:00,59.0,56.0,29.61,South,170,43.0,61.0,89,-99.99,,,-99.99,,2013-09-08 11:52:00,
2013-09-08 04:00:00,61.0,54.0,29.66,South,170,36.0,63.0,77,-99.99,,,-99.99,,2013-09-08 12:00:00,
2013-09-08 04:52:00,61.0,54.0,29.66,South,170,36.0,63.0,77,-99.99,,,-99.99,,2013-09-08 12:52:00,
2013-09-08 05:00:00,58.0,54.0,29.71,South,190,39.0,55.0,86,-99.99,,,-99.99,,2013-09-08 13:00:00,
2013-09-08 05:52:00,58.0,54.0,29.71,South,190,39.0,55.0,86,-99.99,,,-99.99,,2013-09-08 13:52:00,
2013-09-08 06:00:00,58.0,51.0,29.73,South,170,37.0,54.0,77,-99.99,,,-99.99,,2013-09-08 14:00:00,
2013-09-08 06:52:00,58.0,51.0,29.73,South,170,37.0,54.0,77,-99.99,,,-99.99,,2013-09-08 14:52:00,
2013-09-08 07:00:00,58.0,51.0,29.75,South,180,41.0,59.0,77,-99.99,,,-99.99,,2013-09-08 15:00:00,
2013-09-08 07:54:00,58.0,51.0,29.75,South,180,41.0,59.0,77,-99.99,,,-99.99,,2013-09-08 15:54:00,
2013-09-08 08:00:00,57.0,50.0,29.79,South,170,41.0,56.0,77,-99.99,,,-99.99,,2013-09-08 16:00:00,
2013-09-08 08:53:00,57.0,50.0,29.79,South,170,41.0,56.0,77,-99.99,,,-99.99,,2013-09-08 16:53:00,
2013-09-08 09:00:00,56.0,50.0,29.85,SSE,160,34.0,55.0,80,-99.99,,,-99.99,,2013-09-08 17:00:00,
2013-09-08 09:53:00,56.0,50.0,29.85,SSE,160,34.0,55.0,80,-99.99,,,-99.99,,2013-09-08 17:53:00,
2013-09-08 10:00:00,56.0,49.0,29.89,South,180,34.0,52.0,77,-99.99,,,-99.99,,2013-09-08 18:00:00,
2013-09-08 10:52:00,56.0,49.0,29.89,South,180,34.0,52.0,77,-99.99,,,-99.99,,2013-09-08 18:52:00,
2013-09-08 11:00:00,57.0,48.0,29.91,SSE,160,36.0,52.0,71,-99.99,,,-99.99,,2013-09-08 19:00:00,
2013-09-08 11:52:00,57.0,48.0,29.91,SSE,160,36.0,52.0,71,-99.99,,,-99.99,,2013-09-08 19:52:00,
2013-09-08 12:00:00,57.0,48.0,29.94,South,170,32.0,52.0,71,-99.99,,,-99.99,,2013-09-08 20:00:00,
2013-09-08 12:53:00,57.0,48.0,29.94,South,170,32.0,52.0,71,-99.99,,,-99.99,,2013-09-08 20:53:00,
2013-09-08 13:00:00,56.0,49.0,29.97,South,190,31.0,48.0,77,-99.99,,,-99.99,,2013-09-08 21:00:00,
2013-09-08 13:54:00,56.0,49.0,29.97,South,190,31.0,48.0,77,-99.99,,,-99.99,,2013-09-08 21:54:00,
2013-09-08 14:00:00,56.0,50.0,29.99,South,180,32.0,48.0,80,-99.99,,,-99.99,,2013-09-08 22:00:00,
2013-09-08 14:53:00,56.0,50.0,29.99,South,180,32.0,48.0,80,-99.99,,,-99.99,,2013-09-08 22:53:00,
2013-09-08 15:00:00,56.0,50.0,30.00,South,180,29.0,48.0,80,-99.99,,,-99.99,,2013-09-08 23:00:00,
2013-09-08 15:52:00,56.0,50.0,30.00,South,180,29.0,48.0,80,-99.99,,,-99.99,,2013-09-08 23:52:00,
2013-09-08 16:00:00,57.0,49.0,30.01,South,170,29.0,41.0,74,-99.99,,,-99.99,,2013-09-09 00:00:00,
2013-09-08 16:52:00,57.0,49.0,30.01,South,170,29.0,41.0,74,-99.99,,,-99.99,,2013-09-09 00:52:00,
2013-09-08 17:00:00,58.0,49.0,30.01,South,180,34.0,44.0,71,-99.99,,,-99.99,,2013-09-09 01:00:00,
2013-09-08 17:52:00,58.0,49.0,30.01,South,180,34.0,44.0,71,-99.99,,,-99.99,,2013-09-09 01:52:00,
2013-09-08 18:00:00,57.0,50.0,30.02,South,190,28.0,44.0,77,-99.99,,,-99.99,,2013-09-09 02:00:00,
2013-09-08 18:52:00,57.0,50.0,30.02,South,190,28.0,44.0,77,-99.99,,,-99.99,,2013-09-09 02:52:00,
2013-09-08 19:00:00,56.0,51.0,30.03,South,190,26.0,37.0,83,-99.99,,,-99.99,,2013-09-09 03:00:00,
2013-09-08 19:55:00,56.0,51.0,30.03,South,190,26.0,37.0,83,-99.99,,,-99.99,,2013-09-09 03:55:00,
2013-09-08 20:00:00,57.0,49.0,30.05,South,180,24.0,36.0,74,-99.99,,,-99.99,,2013-09-09 04:00:00,
2013-09-08 20:54:00,57.0,49.0,30.05,South,180,24.0,36.0,74,-99.99,,,-99.99,,2013-09-09 04:54:00,
2013-09-08 21:00:00,56.0,49.0,30.06,South,180,30.0,39.0,77,-99.99,,,-99.99,,2013-09-09 05:00:00,
2013-09-08 21:52:00,56.0,49.0,30.06,South,180,30.0,39.0,77,-99.99,,,-99.99,,2013-09-09 05:52:00,
2013-09-08 22:00:00,56.0,48.0,30.07,South,180,31.0,39.0,74,-99.99,,,-99.99,,2013-09-09 06:00:00,
2013-09-08 22:52:00,56.0,48.0,30.07,South,180,31.0,39.0,74,-99.99,,,-99.99,,2013-09-09 06:52:00,
2013-09-08 23:00:00,56.0,48.0,30.09,South,180,25.0,39.0,74,-99.99,,,-99.99,,2013-09-09 07:00:00,
2013-09-08 23:52:00,56.0,48.0,30.09,South,180,25.0,39.0,74,-99.99,,,-99.99,,2013-09-09 07:52:00,